"Pseudo-MPEC" for ST26F59

Created 2026 Jun 17 18:35:09 UT using Find_Orb

Click here for an explanation of pseudo-MPECs

 
 Astrometry: 
     ST26F59* C2026 06 17.27454918 03 20.808+11 03 32.44   ~6H8K 19.36GVNEOCPU68
     ST26F59  C2026 06 17.27789018 03 18.362+11 03 31.71   ~6H8K 19.36GVNEOCPU68
     ST26F59  C2026 06 17.29638518 03 04.706+11 03 27.51   ~6H8K 19.69GVNEOCPU74
     ST26F59  C2026 06 17.29909118 03 02.770+11 03 27.03   ~6H8K 19.69GVNEOCPU74
     ST26F59 0C2026 06 17.30380918 02 57.520+11 04 20.29   ~6HEo 20.05iUNEOCPI41
     ST26F59 0C2026 06 17.37562318 02 00.704+11 03 37.25   ~6HEo 19.68rUNEOCPI41
     ST26F59 0C2026 06 17.41434218 01 29.928+11 03 00.89   ~6HEo 20.10gUNEOCPI41

Station data:
(I41) Palomar Mountain--ZTF  (N33.357336 W116.859780)  US/California.
   Observers B. T. Bolin, Z. T. F. Collaboration. Measurers B. T. Bolin,
   Z.-Y. Lin, F. J. Masci. 1.2-m f/2.4 Schmidt.
(U68) JPL SynTrack Robotic Telescope, Auberry  (N37.070387 W119.412990)
   US/California.  Observers N. Saini, C. Zhai, R. Trahan, M. Zhan, M. Shao.
   0.28-m f/2.2 Schmidt + CCD.
(U74) JPL SynTrack Robotic Telescope 2, Auberry  (N37.070341 W119.412800)
   US/California.  Observers N. Saini, C. Zhai, R. Trahan, M. Zhan, M. Shao.
   0.36-m f/2.2 Schmidt.

Orbital elements:  ST26F59
   Perihelion 2026 Sep 30.336595 +/- 2.05 TT =  8:04:41.7 (JD 2461313.836595)
Epoch 2026 Jun 17.0 TT = JDT 2461208.5   Earth MOID: 0.0001      AutoNEOCP
M 252.871380490 +/- 2.2             (J2000 ecliptic)
n   1.017012365 +/- 0.00168         Peri.  295.152397 +/- 1.2
a   0.979306326 +/- 0.00108         Node    89.632986 +/- 0.23
e   0.11650159 +/- 0.00621          Incl.    4.629609 +/- 0.28
P   0.969/353.971d         H 28.50  G  0.15   U  8.5
q 0.865215581 +/- 0.0053    Q 1.093397071 +/- 0.00712
From 7 observations 2026 June 17 (3.4 hr); mean residual 0".37
Residuals in arcseconds: 
260617 U68  .19+  .31-    260617 U74  .82+  .62+    260617 I41  .04-  .06+    
260617 U68  .17-  .37-    260617 I41  .44-  .03+    
260617 U74  .49-  .24+    260617 I41  .09+  .31-    

Ephemerides (geocentric):
Date (UTC) HH   RA             Dec           delta  r     elong  mag " sig PA
---- --------  ------------   ------------  ------ ------ -----  --- --------
2026 06 17 19  17 58 35.174   +11 05 09.67  .00849 1.0229 145.3 19.6 35.6  89
2026 06 17 20  17 58 10.627   +11 04 38.58  .00840 1.0229 145.4 19.6 42.1  89
2026 06 17 21  17 57 45.510   +11 04 06.45  .00830 1.0228 145.4 19.6 49.2  89
2026 06 17 22  17 57 19.803   +11 03 33.25  .00820 1.0227 145.4 19.5 57.1  89
2026 06 17 23  17 56 53.484   +11 02 58.93  .00811 1.0226 145.4 19.5 65.7  89
2026 06 18 00  17 56 26.533   +11 02 23.45  .00801 1.0226 145.4 19.5 75.2  89
2026 06 18 01  17 55 58.925   +11 01 46.77  .00791 1.0225 145.5 19.5 85.5  89
2026 06 18 02  17 55 30.636   +11 01 08.84  .00781 1.0224 145.5 19.4 96.8  89
2026 06 18 03  17 55 01.643   +11 00 29.60  .00772 1.0223 145.5 19.4  109  89
2026 06 18 04  17 54 31.916   +10 59 49.01  .00762 1.0223 145.5 19.4  122  88
2026 06 18 05  17 54 01.430   +10 59 07.00  .00752 1.0222 145.6 19.3  137  88
2026 06 18 06  17 53 30.154   +10 58 23.52  .00743 1.0221 145.6 19.3  153  88
2026 06 18 07  17 52 58.057   +10 57 38.50  .00733 1.0220 145.6 19.3  170  88
2026 06 18 08  17 52 25.107   +10 56 51.88  .00723 1.0220 145.6 19.3  188  88
2026 06 18 09  17 51 51.270   +10 56 03.58  .00714 1.0219 145.6 19.2  208  88
2026 06 18 10  17 51 16.509   +10 55 13.53  .00704 1.0218 145.7 19.2  229  88
2026 06 18 11  17 50 40.785   +10 54 21.65  .00694 1.0217 145.7 19.2  252  87
2026 06 18 12  17 50 04.060   +10 53 27.85  .00685 1.0217 145.7 19.1  277  87
2026 06 18 13  17 49 26.289   +10 52 32.04  .00675 1.0216 145.7 19.1  304  87
2026 06 18 14  17 48 47.429   +10 51 34.13  995206 1.0215 145.7 19.1  333  87
2026 06 18 15  17 48 07.431   +10 50 34.01  980738 1.0214 145.8 19.0  365  87
2026 06 18 16  17 47 26.245   +10 49 31.57  966274 1.0214 145.8 19.0  399  87
2026 06 18 17  17 46 43.818   +10 48 26.70  951814 1.0213 145.8 19.0  435  87
2026 06 18 18  17 46 00.092   +10 47 19.26  937358 1.0212 145.8 18.9  474  87
2026 06 18 19  17 45 15.007   +10 46 09.14  922907 1.0211 145.8 18.9  516  86
2026 06 18 20  17 44 28.501   +10 44 56.17  908460 1.0211 145.8 18.9  562  86
2026 06 18 21  17 43 40.503   +10 43 40.21  894018 1.0210 145.8 18.8  611  86
2026 06 18 22  17 42 50.943   +10 42 21.10  879581 1.0209 145.9 18.8  664  86
2026 06 18 23  17 41 59.743   +10 40 58.65  865149 1.0208 145.9 18.8  721  86
2026 06 19 00  17 41 06.821   +10 39 32.68  850723 1.0208 145.9 18.7  782  86
2026 06 19 01  17 40 12.088   +10 38 02.98  836304 1.0207 145.9 18.7  849  86
2026 06 19 02  17 39 15.452   +10 36 29.33  821891 1.0206 145.9 18.7  920  86
2026 06 19 03  17 38 16.812   +10 34 51.49  807485 1.0205 145.9 18.6  998  86
2026 06 19 04  17 37 16.060   +10 33 09.20  793086 1.0204 145.9 18.6 1081  85
2026 06 19 05  17 36 13.082   +10 31 22.18  778696 1.0204 145.9 18.5 1171  85
2026 06 19 06  17 35 07.753   +10 29 30.14  764314 1.0203 145.9 18.5 1269  85
2026 06 19 07  17 33 59.942   +10 27 32.74  749942 1.0202 145.9 18.5 1375  85
2026 06 19 08  17 32 49.504   +10 25 29.63  735579 1.0201 145.9 18.4 1489  85
2026 06 19 09  17 31 36.288   +10 23 20.42  721227 1.0201 145.9 18.4 1613  85
2026 06 19 10  17 30 20.126   +10 21 04.68  706886 1.0200 145.9 18.3 1748  85
2026 06 19 11  17 29 00.840   +10 18 41.96  692558 1.0199 145.9 18.3 1894  85
2026 06 19 12  17 27 38.236   +10 16 11.75  678243 1.0198 145.8 18.2 2052  85
2026 06 19 13  17 26 12.104   +10 13 33.50  663942 1.0198 145.8 18.2 2225  84
2026 06 19 14  17 24 42.218   +10 10 46.60  649656 1.0197 145.8 18.1 2413  84
2026 06 19 15  17 23 08.331   +10 07 50.39  635387 1.0196 145.8 18.1 2618  84
2026 06 19 16  17 21 30.174   +10 04 44.14  621137 1.0195 145.7 18.1 2842  84
2026 06 19 17  17 19 47.455   +10 01 27.02  606906 1.0194 145.7 18.0 3087  84
2026 06 19 18  17 17 59.855   +09 57 58.16  592696 1.0194 145.6 18.0 3354  84